Retour au catalogue

GEESAT 5-04

ActifCommunicationsLEO
NORAD 65553·PAYLOAD·🇨🇳 China

Lancé Sep 8, 2025 depuis Yellow Sea Launch Area

Loading…

Prochains Passages (prochaines 24 heures)

TLE

FraisSource: Space-Track

Époque: Sep 14, 2026, 05:45 UTC

1 65553U 25201D   26257.23970383  .00000879  00000-0  13035-3 0  9990
2 65553  49.9875 346.6914 0008481 252.3675 107.6338 14.84420005 55019

Suivez GEESAT 5-04 en temps réel avec AllMySat

Download on the App Store